Location: NJAA Observatory
(40.6819°N, 74.8979°W)
Time: 07:35:48
(UTC-04:00)

Iridium 4 - Visible Passes

Search period start: 02 September 2014 00:00
Search period end: 12 September 2014 00:00
Orbit: 774 x 777 km, 86.4° (Epoch: 01 September)

Date Brightness Start Highest point End Pass type
(mag) Time Alt. Az. Time Alt. Az. Time Alt. Az.
02 Sep 6.6 03:25:03 38° E 03:25:36 39° E 03:30:25 10° NNE visible
02 Sep 6.7 05:05:31 22° W 05:06:24 23° WNW 05:10:32 10° NNW visible
03 Sep 7.5 02:51:34 21° E 02:51:52 21° E 02:55:43 10° NNE visible
03 Sep 5.9 04:32:02 42° W 04:32:13 42° W 04:37:09 10° NNW visible
04 Sep 8.2 02:18:04 11° ENE 02:18:16 11° ENE 02:19:45 10° ENE visible
04 Sep 5.5 03:58:32 74° NW 03:58:32 74° NW 04:03:23 10° N visible
05 Sep 6.3 03:25:00 50° NE 03:25:00 50° NE 03:29:18 10° NNE visible
05 Sep 7.1 05:05:28 17° WNW 05:05:28 17° WNW 05:08:35 10° NW visible
06 Sep 7.3 02:51:28 27° ENE 02:51:28 27° ENE 02:54:52 10° NNE visible
06 Sep 6.6 04:31:55 29° WNW 04:31:55 29° WNW 04:35:35 10° NNW visible
07 Sep 8.1 02:17:54 15° ENE 02:17:54 15° ENE 02:19:50 10° NE visible
07 Sep 6.3 03:58:22 41° NNW 03:58:22 41° NNW 04:02:00 10° N visible
08 Sep 6.6 03:24:47 40° NNE 03:24:47 40° NNE 03:28:05 10° N visible
08 Sep 7.6 05:05:14 11° WNW 05:05:14 11° WNW 05:06:04 10° NW visible
09 Sep 7.4 02:51:11 27° NE 02:51:11 27° NE 02:53:51 10° NNE visible
09 Sep 7.2 04:31:38 19° NW 04:31:38 19° NW 04:33:51 10° NNW visible
10 Sep 8.0 02:17:34 17° NE 02:17:34 17° NE 02:19:12 10° NNE visible
10 Sep 7.0 03:58:02 25° NNW 03:58:02 25° NNW 04:00:31 10° NNW visible
11 Sep 7.2 03:24:24 28° N 03:24:24 28° N 03:26:46 10° N visible
